FW4377 Weather Reports


time (UTC)temp
C
wind
direction
speed
KPH
gust
KPH
rain 1hr
cm
rain 24hr
cm
rain mn
cm
humidity
%
barometer
mb
20260508003044 13 311 6.4 11.3 0.00 0.28 0.25 38 1006.1
20260508001548 13 323 4.8 12.9 0.00 0.28 0.25 37 1005.9
20260508000048 14 321 6.4 12.9 0.00 0.28 0.25 36 1005.9
20260507234547 15 305 8.0 19.3 0.00 0.33 0.25 35 1005.7
20260507233048 15 332 8.0 17.7 0.00 0.33 0.25 34 1005.7
20260507231549 15 285 6.4 19.3 0.00 0.33 0.25 33 1005.5
20260507230105 16 309 8.0 22.5 0.00 0.33 0.25 32 1005.3
20260507224544 16 263 9.7 24.1 0.00 0.33 0.25 32 1005.2
20260507223133 16 290 9.7 22.5 0.00 0.33 0.25 32 1005.2
20260507221546 16 46 9.7 20.9 0.00 0.33 0.25 34 1005.0
20260507220047 16 294 16.1 32.2 0.00 0.33 0.25 32 1005.0
20260507214554 16 306 11.3 24.1 0.00 0.33 0.25 33 1004.7
20260507213046 16 1 11.3 35.4 0.00 0.33 0.25 33 1004.8
20260507211548 17 302 1.6 24.1 0.00 0.33 0.25 33 1004.6
20260507210052 17 273 12.9 27.4 0.00 0.33 0.25 33 1004.6
20260507204548 17 314 12.9 25.7 0.00 0.36 0.25 32 1004.6
20260507203045 17 302 14.5 30.6 0.00 0.36 0.25 31 1004.6
20260507201604 17 20 9.7 27.4 0.00 0.36 0.25 33 1004.7
20260507200055 16 315 14.5 22.5 0.00 0.36 0.25 29 1004.8
20260507194552 16 278 9.7 27.4 0.00 0.38 0.25 31 1004.9
20260507193051 16 293 16.1 29.0 0.00 0.38 0.25 31 1004.9
20260507191548 17 311 14.5 30.6 0.00 0.38 0.25 30 1004.9
20260507190052 17 322 11.3 27.4 0.00 0.38 0.25 33 1005.1
20260507184546 16 23 14.5 29.0 0.00 0.38 0.25 33 1005.2
20260507183052 17 304 9.7 29.0 0.00 0.38 0.25 34 1005.3
20260507181556 16 242 12.9 25.7 0.00 0.38 0.25 35 1005.3
20260507180049 16 6 6.4 25.7 0.00 0.38 0.25 38 1005.6
20260507174554 16 326 16.1 35.4 0.00 0.38 0.25 43 1005.4
20260507173049 16 311 6.4 24.1 0.00 0.38 0.25 46 1005.5
20260507171556 15 292 12.9 27.4 0.00 0.38 0.25 49 1005.7
20260507170049 16 6 11.3 25.7 0.00 0.38 0.25 50 1005.6
20260507164551 16 42 11.3 24.1 0.00 0.38 0.25 51 1005.9
20260507163046 15 311 11.3 20.9 0.00 0.38 0.25 54 1006.0
20260507161554 15 265 11.3 22.5 0.00 0.38 0.25 54 1006.1
20260507160051 15 331 8.0 17.7 0.00 0.38 0.25 53 1006.4
20260507154552 15 283 9.7 20.9 0.00 0.38 0.25 52 1006.5
20260507153108 15 256 8.0 20.9 0.00 0.38 0.25 51 1006.6
20260507151556 15 304 8.0 19.3 0.00 0.38 0.25 52 1006.6
20260507150055 14 333 9.7 20.9 0.00 0.38 0.25 52 1006.9
20260507144546 14 271 9.7 17.7 0.00 0.38 0.25 53 1006.9
20260507143053 13 297 1.6 14.5 0.00 0.38 0.25 57 1007.2
20260507141545 13 335 3.2 12.9 0.00 0.38 0.25 59 1007.1
20260507140051 13 62 6.4 12.9 0.00 0.38 0.25 60 1007.1
20260507134552 12 30 6.4 19.3 0.00 0.38 0.25 62 1007.3
20260507133054 12 326 4.8 12.9 0.00 0.38 0.25 66 1007.6
20260507131551 12 290 3.2 12.9 0.00 0.38 0.25 69 1007.6
20260507130103 11 309 8.0 14.5 0.00 0.38 0.25 70 1007.8
20260507124607 11 351 6.4 24.1 0.03 0.38 0.25 75 1007.7
20260507123105 10 303 8.0 19.3 0.03 0.38 0.25 80 1007.4
20260507121555 10 297 4.8 12.9 0.03 0.38 0.25 84 1007.5
20260507120042 9 311 4.8 12.9 0.03 0.38 0.25 87 1007.5
20260507114608 9 300 4.8 9.7 0.00 0.36 0.23 88 1007.3
20260507113047 8 328 3.2 6.4 0.00 0.36 0.23 89 1007.5
20260507111550 8 339 1.6 6.4 0.00 0.36 0.23 89 1007.3
20260507110046 8 296 1.6 4.8 0.03 0.36 0.23 89 1007.6
20260507104550 8 207 1.6 4.8 0.05 0.36 0.23 89 1007.5
20260507103047 8 0 1.6 3.2 0.05 0.36 0.23 89 1007.0
20260507101557 8 338 1.6 4.8 0.13 0.36 0.23 88 1007.1
20260507100056 8 307 3.2 12.9 0.13 0.33 0.20 87 1006.9
20260507094549 9 16 3.2 14.5 0.13 0.30 0.18 87 1006.8
20260507093048 9 333 6.4 16.1 0.13 0.30 0.18 87 1006.8
20260507091548 10 341 6.4 17.7 0.05 0.23 0.10 86 1006.8
20260507090050 10 306 4.8 16.1 0.05 0.20 0.08 85 1006.9
20260507084550 10 298 9.7 16.1 0.05 0.18 0.05 85 1006.6
20260507083105 10 316 6.4 16.1 0.05 0.18 0.05 85 1006.4
20260507081553 10 340 12.9 22.5 0.05 0.18 0.05 83 1006.6
20260507080050 11 319 11.3 25.7 0.03 0.15 0.03 82 1006.5
20260507074558 11 314 12.9 22.5 0.00 0.13 0.00 80 1006.6
20260507073058 11 310 11.3 24.1 0.00 0.13 0.00 81 1005.8
20260507071549 12 331 6.4 12.9 0.00 0.13 0.00 85 1006.0
20260507070047 12 290 4.8 20.9 0.00 0.13 0.00 85 1005.8
20260507064550 12 295 6.4 12.9 0.00 0.13 0.00 86 1005.9
20260507063050 12 21 6.4 12.9 0.00 0.13 0.00 87 1005.7
20260507061545 12 322 8.0 17.7 0.00 0.13 0.00 86 1005.7
20260507060043 12 317 8.0 17.7 0.00 0.13 0.00 86 1005.9
20260507054546 13 285 11.3 20.9 0.00 0.13 0.00 86 1006.1
20260507053048 13 330 11.3 19.3 0.00 0.13 0.00 87 1005.9
20260507051550 13 302 4.8 12.9 0.00 0.13 0.00 87 1005.8
20260507050050 14 326 8.0 20.9 0.00 0.13 0.00 87 1005.8
20260507044549 15 269 8.0 17.7 0.00 0.13 0.00 90 1005.7
20260507043045 15 247 4.8 14.5 0.03 0.13 0.00 91 1005.8
20260507041548 15 249 6.4 14.5 0.03 0.13 0.00 92 1005.9
20260507040046 15 260 6.4 12.9 0.03 0.13 0.00 92 1006.0
20260507034547 15 264 6.4 14.5 0.03 0.13 0.13 91 1005.7
20260507033042 15 234 11.3 24.1 0.00 0.10 0.10 90 1005.7
20260507031541 15 255 11.3 19.3 0.00 0.10 0.10 90 1005.3
20260507030050 15 222 6.4 20.9 0.00 0.10 0.10 90 1005.1
20260507024601 15 263 12.9 20.9 0.00 0.10 0.10 90 1005.4
20260507023047 15 233 9.7 19.3 0.00 0.10 0.10 90 1005.5
20260507021551 14 255 9.7 19.3 0.00 0.10 0.10 90 1005.4
20260507020107 14 214 6.4 17.7 0.00 0.10 0.10 90 1005.6
20260507014605 14 245 9.7 19.3 0.00 0.10 0.10 91 1005.7
20260507013053 14 210 9.7 16.1 0.00 0.10 0.10 91 1005.8
20260507011551 13 295 12.9 20.9 0.00 0.10 0.10 91 1005.9
20260507010050 13 210 11.3 19.3 0.00 0.10 0.10 91 1006.0
20260507004553 13 224 8.0 22.5 0.00 0.10 0.10 91 1005.9